Cody, WY

1:03 AM MDT on October 17, 2017 (GMT -0600)
Yellowstone Regional

Weather History for KCOD - November, 2010

Change the Weather History Date:

Wednesday, November 24, 2010

  Actual Average Record
Temperature  
Mean Temperature -3 °F -  
Max Temperature 10 °F 41 °F 66 °F (1933)
Min Temperature -16 °F 22 °F -16 °F (2010)
Degree Days  
Heating Degree Days 68    
Moisture  
Dew Point -14 °F    
Average Humidity 66    
Maximum Humidity 100    
Minimum Humidity 23    
Precipitation  
Precipitation 0.00 in - - ()
Sea Level Pressure  
Sea Level Pressure 29.64 in    
Wind  
Wind Speed 8 mph (West)    
Max Wind Speed 24 mph    
Max Gust Speed 38 mph    
Visibility 10 miles    
Events      
Averages and records for this station are not official NWS values.
T = Trace of Precipitation, MM = Missing Value Source: NWS Daily Summary

Daily Weather History Graph

Daily Weather History Graph

Search for Another Location

Airport or City:

Trip Planner

Search our weather history database for the weather conditions in past years. The results will help you decide how hot, cold, wet, or windy it might be!

Date:

Astronomy

Nov. 24, 2010 Rise Set
Actual Time 7:24 AM MST 4:41 PM MST
Civil Twilight 6:51 AM MST 5:13 PM MST
Nautical Twilight 6:16 AM MST 5:49 PM MST
Astronomical Twilight 5:41 AM MST 6:23 PM MST
Moon 7:30 PM MST (11/24) 10:16 AM MST (11/24)
Length of Visible Light 10h 21m
Length of Day
9h 16m
Waning Gibbous, 90% of the Moon is Illuminated
Nov 24
Waning Gibbous
Nov 28
Last Quarter
Dec 5
New
Dec 13
First Quarter
Dec 21
Full

Hourly Weather History & Observations

Time (MST) Temp. Windchill Dew Point Humidity Pressure Visibility Wind Dir Wind Speed Gust Speed Precip Events Conditions
12:15 AM -7.6 °F -27.5 °F -9.4 °F 92% 29.64 in 10.0 mi North 12.7 mph 18.4 mph N/A   Overcast
12:35 AM -7.6 °F -24.6 °F -14.8 °F 71% 29.63 in 10.0 mi NNE 9.2 mph - N/A   Mostly Cloudy
1:15 AM -9.4 °F -24.3 °F -14.8 °F 77% 29.64 in 10.0 mi NE 6.9 mph - N/A   Clear
1:35 AM -11.2 °F -20.6 °F -16.6 °F 77% 29.64 in 10.0 mi NNE 3.5 mph - N/A   Clear
1:55 AM -9.4 °F -20.9 °F -9.4 °F 100% 29.64 in 10.0 mi NE 4.6 mph - N/A   Clear
2:15 AM -11.2 °F -24.8 °F -18.4 °F 70% 29.65 in 10.0 mi South 5.8 mph - N/A   Clear
2:35 AM -14.8 °F -30.8 °F -23.8 °F 64% 29.65 in 10.0 mi SSW 6.9 mph - N/A   Clear
2:55 AM -16.6 °F -31.3 °F -22.0 °F 76% 29.65 in 10.0 mi SW 5.8 mph - N/A   Partly Cloudy
3:15 AM -16.6 °F -31.3 °F -16.6 °F 100% 29.65 in 10.0 mi South 5.8 mph - N/A   Scattered Clouds
3:35 AM -14.8 °F -30.8 °F -14.8 °F 100% 29.65 in 10.0 mi South 6.9 mph - N/A   Partly Cloudy
3:55 AM -14.8 °F -24.8 °F -22.0 °F 70% 29.65 in 10.0 mi SSW 3.5 mph - N/A   Clear
4:15 AM -16.6 °F -26.8 °F -22.0 °F 76% 29.66 in 10.0 mi SSE 3.5 mph - N/A   Clear
4:35 AM -16.6 °F -26.8 °F -25.6 °F 64% 29.66 in 10.0 mi SSE 3.5 mph - N/A   Clear
4:55 AM -16.6 °F -26.8 °F -16.6 °F 100% 29.67 in 10.0 mi WSW 3.5 mph - N/A   Clear
5:15 AM -16.6 °F -29.3 °F -18.4 °F 92% 29.67 in 10.0 mi SSW 4.6 mph - N/A   Clear
5:35 AM -14.8 °F -27.2 °F -23.8 °F 64% 29.67 in 10.0 mi South 4.6 mph - N/A   Clear
5:55 AM -16.6 °F -31.3 °F -16.6 °F 100% 29.66 in 10.0 mi SSW 5.8 mph - N/A   Clear
6:15 AM -14.8 °F -29.1 °F -23.8 °F 64% 29.66 in 10.0 mi SSW 5.8 mph - N/A   Clear
6:35 AM -14.8 °F -24.8 °F -23.8 °F 64% 29.66 in 10.0 mi SSW 3.5 mph - N/A   Clear
6:55 AM -14.8 °F -34.6 °F -16.6 °F 92% 29.65 in 10.0 mi SSE 10.4 mph - N/A   Clear
7:15 AM -14.8 °F -27.2 °F -25.6 °F 58% 29.66 in 10.0 mi SSE 4.6 mph - N/A   Clear
7:55 AM -14.8 °F - -25.6 °F 58% 29.67 in 10.0 mi Calm Calm - N/A   Clear
8:15 AM -11.2 °F - -11.2 °F 100% 29.68 in 10.0 mi Calm Calm - N/A   Clear
8:35 AM -11.2 °F - -23.8 °F 54% 29.66 in 10.0 mi Calm Calm - N/A   Clear
8:55 AM -9.4 °F -18.6 °F -16.6 °F 71% 29.66 in 10.0 mi SE 3.5 mph - N/A   Partly Cloudy
9:15 AM -9.4 °F - -14.8 °F 77% 29.66 in 10.0 mi Calm Calm - N/A   Partly Cloudy
9:35 AM -7.6 °F -18.8 °F -16.6 °F 65% 29.65 in 10.0 mi SSE 4.6 mph - N/A   Scattered Clouds
9:55 AM -4.0 °F -20.2 °F -14.8 °F 60% 29.63 in 10.0 mi SSE 9.2 mph - N/A   Clear
10:15 AM 1.4 °F -12.5 °F -7.6 °F 66% 29.61 in 10.0 mi WNW 8.1 mph - N/A   Clear
10:35 AM 5.0 °F -13.0 °F -11.2 °F 47% 29.61 in 10.0 mi WNW 15.0 mph 29.9 mph N/A   Clear
10:55 AM 1.4 °F -12.5 °F -14.8 °F 47% 29.62 in 10.0 mi NW 8.1 mph 21.9 mph N/A   Clear
11:15 AM 10.4 °F -7.7 °F -5.8 °F 48% 29.60 in 10.0 mi West 18.4 mph 26.5 mph N/A   Clear
11:35 AM 3.2 °F -7.8 °F -16.6 °F 39% 29.62 in 10.0 mi North 5.8 mph 28.8 mph N/A   Clear
11:55 AM 1.4 °F -9.9 °F -20.2 °F 36% 29.62 in 10.0 mi NNE 5.8 mph - N/A   Mostly Cloudy
12:15 PM -0.4 °F -18.4 °F -7.6 °F 72% 29.62 in 10.0 mi NNE 12.7 mph 19.6 mph N/A   Overcast
12:35 PM 1.4 °F -16.1 °F -18.4 °F 39% 29.61 in 10.0 mi North 12.7 mph 21.9 mph N/A   Overcast
12:55 PM -0.4 °F -13.4 °F -7.6 °F 72% 29.60 in 10.0 mi NNE 6.9 mph 17.3 mph N/A   Scattered Clouds
1:15 PM 1.4 °F -11.3 °F -11.2 °F 56% 29.60 in 10.0 mi North 6.9 mph - N/A   Partly Cloudy
1:35 PM 5.0 °F -14.2 °F -25.6 °F 23% 29.60 in 10.0 mi West 17.3 mph 38.0 mph N/A   Mostly Cloudy
1:55 PM 8.6 °F -11.4 °F -20.2 °F 26% 29.60 in 10.0 mi West 21.9 mph 31.1 mph N/A   Overcast
2:15 PM 10.4 °F -9.9 °F -5.8 °F 48% 29.60 in 10.0 mi West 24.2 mph 38.0 mph N/A   Overcast
2:35 PM 10.4 °F -8.2 °F -7.6 °F 44% 29.59 in 10.0 mi West 19.6 mph 32.2 mph N/A   Overcast
2:55 PM 10.4 °F -8.2 °F -5.8 °F 48% 29.61 in 10.0 mi WSW 19.6 mph 36.8 mph N/A   Overcast
3:15 PM 10.4 °F -9.1 °F -7.6 °F 44% 29.61 in 10.0 mi West 21.9 mph 34.5 mph N/A   Overcast
3:35 PM 10.4 °F -7.2 °F -5.8 °F 48% 29.63 in 10.0 mi West 17.3 mph 28.8 mph N/A   Overcast
3:55 PM 3.2 °F -13.1 °F -11.2 °F 51% 29.65 in 10.0 mi NE 11.5 mph - N/A   Overcast
4:15 PM -0.4 °F -17.6 °F -9.4 °F 66% 29.66 in 10.0 mi NE 11.5 mph - N/A   Overcast
4:35 PM -0.4 °F -18.4 °F -7.6 °F 72% 29.67 in 10.0 mi NE 12.7 mph 16.1 mph N/A   Overcast
4:55 PM 3.2 °F -7.8 °F -2.2 °F 78% 29.65 in 10.0 mi West 5.8 mph - N/A   Overcast
5:15 PM -0.4 °F -10.4 °F -13.0 °F 55% 29.65 in 10.0 mi NNW 4.6 mph - N/A   Overcast
5:35 PM 3.2 °F -11.3 °F -0.4 °F 85% 29.66 in 10.0 mi WNW 9.2 mph 18.4 mph N/A   Mostly Cloudy
5:55 PM 1.4 °F -14.5 °F -9.4 °F 61% 29.67 in 10.0 mi NNE 10.4 mph 16.1 mph N/A   Mostly Cloudy
6:15 PM 1.4 °F -11.3 °F -5.8 °F 72% 29.68 in 10.0 mi West 6.9 mph 23.0 mph N/A   Mostly Cloudy
6:35 PM -0.4 °F -10.4 °F -9.4 °F 66% 29.69 in 10.0 mi North 4.6 mph 16.1 mph N/A   Mostly Cloudy
6:55 PM 1.4 °F -9.9 °F -2.2 °F 85% 29.70 in 10.0 mi NE 5.8 mph - N/A   Mostly Cloudy
7:15 PM 5.0 °F -8.1 °F -5.8 °F 61% 29.70 in 10.0 mi North 8.1 mph 17.3 mph N/A   Overcast
7:35 PM 3.2 °F -9.1 °F -9.4 °F 56% 29.69 in 10.0 mi WSW 6.9 mph - N/A   Overcast
7:55 PM 6.8 °F -11.8 °F -0.4 °F 72% 29.69 in 10.0 mi West 17.3 mph 32.2 mph N/A   Overcast
8:15 PM 8.6 °F -11.9 °F -5.8 °F 52% 29.67 in 10.0 mi WSW 23.0 mph 31.1 mph N/A   Overcast
8:35 PM 8.6 °F -11.9 °F -4.0 °F 57% 29.68 in 10.0 mi West 23.0 mph 38.0 mph N/A   Overcast
8:55 PM 8.6 °F -8.3 °F -5.8 °F 52% 29.69 in 10.0 mi West 15.0 mph 36.8 mph N/A   Overcast
9:15 PM 8.6 °F -11.0 °F -4.0 °F 57% 29.69 in 10.0 mi WSW 20.7 mph 32.2 mph N/A   Overcast
9:35 PM 10.4 °F -6.6 °F -5.8 °F 48% 29.69 in 10.0 mi West 16.1 mph 28.8 mph N/A   Overcast
9:55 PM 8.6 °F -11.0 °F -2.2 °F 62% 29.69 in 10.0 mi WSW 20.7 mph 32.2 mph N/A   Overcast
10:15 PM 10.4 °F -8.6 °F -2.2 °F 57% 29.70 in 10.0 mi West 20.7 mph 33.4 mph N/A   Scattered Clouds
10:35 PM 10.4 °F -9.5 °F -4.0 °F 52% 29.70 in 10.0 mi WSW 23.0 mph 40.3 mph N/A   Partly Cloudy
10:55 PM 10.4 °F -10.3 °F -4.0 °F 52% 29.70 in 10.0 mi WSW 25.3 mph 39.1 mph N/A   Mostly Cloudy
11:15 PM 10.4 °F -10.7 °F -5.8 °F 48% 29.71 in 10.0 mi WSW 26.5 mph 36.8 mph N/A   Overcast
11:35 PM 10.4 °F -9.9 °F -5.8 °F 48% 29.71 in 10.0 mi WSW 24.2 mph 36.8 mph N/A   Overcast
11:55 PM 10.4 °F -9.1 °F -4.0 °F 52% 29.70 in 10.0 mi WSW 21.9 mph 40.3 mph N/A   Overcast